Time,TemperatureF,DewpointF,PressureIn,WindDirection,WindDirectionDegrees,WindSpeedMPH,WindSpeedGustMPH,Humidity,HourlyPrecipIn,Conditions,Clouds,dailyrainin,SoftwareType,DateUTC
2013-06-15 00:01:00,66.0,57.2,30.01,West,273,0.0,0.0,73,0.00,,,0.00,meteohub,2013-06-15 04:01:00,
2013-06-15 00:02:00,66.0,57.2,30.01,West,273,0.0,0.0,73,0.00,,,0.00,meteohub,2013-06-15 04:02:00,
2013-06-15 00:03:00,66.0,57.2,30.01,West,273,0.0,0.0,73,0.00,,,0.00,meteohub,2013-06-15 04:03:00,
2013-06-15 00:09:00,65.7,57.2,30.02,West,273,0.0,0.0,74,0.00,,,0.00,meteohub,2013-06-15 04:09:00,
2013-06-15 00:14:00,65.5,57.0,30.02,West,273,0.0,0.0,74,0.00,,,0.00,meteohub,2013-06-15 04:14:00,
2013-06-15 00:19:00,65.1,57.0,30.02,West,273,0.0,0.0,75,0.00,,,0.00,meteohub,2013-06-15 04:19:00,
2013-06-15 00:24:00,65.3,57.2,30.02,West,273,0.0,0.0,75,0.00,,,0.00,meteohub,2013-06-15 04:24:00,
2013-06-15 00:30:00,65.7,57.2,30.02,West,273,0.0,0.0,74,0.00,,,0.00,meteohub,2013-06-15 04:30:00,
2013-06-15 00:35:00,66.0,57.6,30.02,West,273,0.0,0.0,74,0.00,,,0.00,meteohub,2013-06-15 04:35:00,
2013-06-15 00:40:00,66.4,57.4,30.03,West,273,0.0,0.0,73,0.00,,,0.00,meteohub,2013-06-15 04:40:00,
2013-06-15 00:45:00,66.6,57.6,30.03,West,273,0.0,0.0,73,0.00,,,0.00,meteohub,2013-06-15 04:45:00,
2013-06-15 00:50:00,66.0,57.6,30.03,West,273,0.0,0.0,74,0.00,,,0.00,meteohub,2013-06-15 04:50:00,
2013-06-15 00:55:00,65.5,58.5,30.03,West,273,0.0,0.0,78,0.00,,,0.00,meteohub,2013-06-15 04:55:00,
2013-06-15 01:01:00,64.6,58.3,30.03,West,273,0.0,0.0,80,0.00,,,0.00,meteohub,2013-06-15 05:01:00,
2013-06-15 01:06:00,64.8,57.7,30.03,West,273,0.0,0.0,78,0.00,,,0.00,meteohub,2013-06-15 05:06:00,
2013-06-15 01:11:00,64.9,57.9,30.04,West,273,0.0,0.0,78,0.00,,,0.00,meteohub,2013-06-15 05:11:00,
2013-06-15 01:16:00,64.8,58.8,30.04,West,273,0.0,0.0,81,0.00,,,0.00,meteohub,2013-06-15 05:16:00,
2013-06-15 01:22:00,64.2,59.4,30.04,West,273,0.0,0.0,84,0.00,,,0.00,meteohub,2013-06-15 05:22:00,
2013-06-15 01:27:00,63.9,59.2,30.04,West,273,0.0,0.0,85,0.00,,,0.00,meteohub,2013-06-15 05:27:00,
2013-06-15 01:32:00,63.5,58.8,30.04,West,273,0.0,0.0,85,0.00,,,0.00,meteohub,2013-06-15 05:32:00,
2013-06-15 01:37:00,63.1,58.8,30.04,West,273,0.0,0.0,86,0.00,,,0.00,meteohub,2013-06-15 05:37:00,
2013-06-15 01:42:00,63.1,59.5,30.04,West,273,0.0,0.0,88,0.00,,,0.00,meteohub,2013-06-15 05:42:00,
2013-06-15 01:47:00,63.1,59.5,30.04,West,273,0.0,0.0,88,0.00,,,0.00,meteohub,2013-06-15 05:47:00,
2013-06-15 01:52:00,63.1,59.2,30.04,West,273,0.0,0.0,87,0.00,,,0.00,meteohub,2013-06-15 05:52:00,
2013-06-15 01:57:00,63.7,58.1,30.04,West,273,0.0,0.0,82,0.00,,,0.00,meteohub,2013-06-15 05:57:00,
2013-06-15 02:02:00,64.2,58.6,30.04,West,273,0.0,0.0,82,0.00,,,0.00,meteohub,2013-06-15 06:02:00,
2013-06-15 02:07:00,64.6,59.0,30.04,West,273,0.0,0.0,82,0.00,,,0.00,meteohub,2013-06-15 06:07:00,
2013-06-15 02:12:00,64.9,57.9,30.04,West,273,0.0,0.0,78,0.00,,,0.00,meteohub,2013-06-15 06:12:00,
2013-06-15 02:17:00,65.5,57.4,30.04,West,273,0.0,0.0,75,0.00,,,0.00,meteohub,2013-06-15 06:17:00,
2013-06-15 02:22:00,65.8,57.4,30.04,West,273,0.0,0.0,74,0.00,,,0.00,meteohub,2013-06-15 06:22:00,
2013-06-15 02:27:00,65.8,58.8,30.04,West,273,0.0,0.0,78,0.00,,,0.00,meteohub,2013-06-15 06:27:00,
2013-06-15 02:32:00,66.0,57.2,30.04,West,273,0.0,0.0,73,0.00,,,0.00,meteohub,2013-06-15 06:32:00,
2013-06-15 02:37:00,66.0,57.6,30.04,West,273,0.0,0.0,74,0.00,,,0.00,meteohub,2013-06-15 06:37:00,
2013-06-15 02:42:00,65.8,57.4,30.04,West,273,0.0,0.0,74,0.00,,,0.00,meteohub,2013-06-15 06:42:00,
2013-06-15 02:47:00,65.8,57.0,30.04,West,273,0.0,0.0,73,0.00,,,0.00,meteohub,2013-06-15 06:47:00,
2013-06-15 02:52:00,66.0,56.7,30.04,West,273,0.0,0.0,72,0.00,,,0.00,meteohub,2013-06-15 06:52:00,
2013-06-15 02:57:00,66.0,56.7,30.04,West,273,0.0,0.0,72,0.00,,,0.00,meteohub,2013-06-15 06:57:00,
2013-06-15 03:02:00,65.8,56.5,30.04,West,273,0.0,0.0,72,0.00,,,0.00,meteohub,2013-06-15 07:02:00,
2013-06-15 03:07:00,65.7,56.8,30.04,West,273,0.0,0.0,73,0.00,,,0.00,meteohub,2013-06-15 07:07:00,
2013-06-15 03:12:00,65.5,57.0,30.04,West,273,0.0,0.0,74,0.00,,,0.00,meteohub,2013-06-15 07:12:00,
2013-06-15 03:17:00,65.5,57.0,30.04,West,273,0.0,0.0,74,0.00,,,0.00,meteohub,2013-06-15 07:17:00,
2013-06-15 03:22:00,65.3,58.3,30.04,West,273,0.0,0.0,78,0.00,,,0.00,meteohub,2013-06-15 07:22:00,
2013-06-15 03:27:00,64.9,56.5,30.05,West,273,0.0,0.0,74,0.00,,,0.00,meteohub,2013-06-15 07:27:00,
2013-06-15 03:32:00,64.6,56.5,30.05,West,273,0.0,0.0,75,0.00,,,0.00,meteohub,2013-06-15 07:32:00,
2013-06-15 03:37:00,64.2,57.2,30.04,West,273,0.0,0.0,78,0.00,,,0.00,meteohub,2013-06-15 07:37:00,
2013-06-15 03:42:00,63.7,57.4,30.04,West,273,0.0,0.0,80,0.00,,,0.00,meteohub,2013-06-15 07:42:00,
2013-06-15 03:47:00,63.3,57.0,30.04,West,273,0.0,0.0,80,0.00,,,0.00,meteohub,2013-06-15 07:47:00,
2013-06-15 03:52:00,63.1,57.2,30.04,West,273,0.0,0.0,81,0.00,,,0.00,meteohub,2013-06-15 07:52:00,
2013-06-15 03:57:00,63.0,57.0,30.04,West,273,0.0,0.0,81,0.00,,,0.00,meteohub,2013-06-15 07:57:00,
2013-06-15 04:02:00,63.1,57.2,30.04,West,273,0.0,0.0,81,0.00,,,0.00,meteohub,2013-06-15 08:02:00,
2013-06-15 04:07:00,63.1,57.2,30.04,West,273,0.0,0.0,81,0.00,,,0.00,meteohub,2013-06-15 08:07:00,
2013-06-15 04:12:00,63.0,57.4,30.04,West,273,0.0,0.0,82,0.00,,,0.00,meteohub,2013-06-15 08:12:00,
2013-06-15 04:17:00,63.0,57.4,30.04,West,273,0.0,0.0,82,0.00,,,0.00,meteohub,2013-06-15 08:17:00,
2013-06-15 04:22:00,63.0,57.7,30.04,West,273,0.0,0.0,83,0.00,,,0.00,meteohub,2013-06-15 08:22:00,
2013-06-15 04:27:00,63.0,57.7,30.04,West,273,0.0,0.0,83,0.00,,,0.00,meteohub,2013-06-15 08:27:00,
2013-06-15 04:32:00,63.0,58.1,30.04,West,273,0.0,0.0,84,0.00,,,0.00,meteohub,2013-06-15 08:32:00,
2013-06-15 04:37:00,62.8,57.9,30.04,West,273,0.0,0.0,84,0.00,,,0.00,meteohub,2013-06-15 08:37:00,
2013-06-15 04:42:00,62.8,57.9,30.04,West,273,0.0,0.0,84,0.00,,,0.00,meteohub,2013-06-15 08:42:00,
2013-06-15 04:47:00,62.6,57.7,30.04,West,273,0.0,0.0,84,0.00,,,0.00,meteohub,2013-06-15 08:47:00,
2013-06-15 04:52:00,62.8,58.3,30.04,West,273,0.0,0.0,85,0.00,,,0.00,meteohub,2013-06-15 08:52:00,
2013-06-15 04:57:00,62.8,57.9,30.04,West,273,0.0,0.0,84,0.00,,,0.00,meteohub,2013-06-15 08:57:00,
2013-06-15 05:02:00,63.0,58.1,30.04,West,273,0.0,0.0,84,0.00,,,0.00,meteohub,2013-06-15 09:02:00,
2013-06-15 05:07:00,63.0,57.7,30.04,West,273,0.0,0.0,83,0.00,,,0.00,meteohub,2013-06-15 09:07:00,
2013-06-15 05:12:00,63.3,58.1,30.04,West,270,0.0,0.0,83,0.00,,,0.00,meteohub,2013-06-15 09:12:00,
2013-06-15 05:17:00,63.5,58.3,30.04,West,270,0.0,0.0,83,0.00,,,0.00,meteohub,2013-06-15 09:17:00,
2013-06-15 05:22:00,63.7,57.7,30.04,West,270,0.0,0.0,81,0.00,,,0.00,meteohub,2013-06-15 09:22:00,
2013-06-15 05:27:00,63.9,57.9,30.04,West,270,0.0,0.0,81,0.00,,,0.00,meteohub,2013-06-15 09:27:00,
2013-06-15 05:32:00,63.9,57.6,30.05,West,270,0.0,0.0,80,0.00,,,0.00,meteohub,2013-06-15 09:32:00,
2013-06-15 05:37:00,64.2,57.2,30.05,West,270,0.0,0.0,78,0.00,,,0.00,meteohub,2013-06-15 09:37:00,
2013-06-15 05:42:00,64.2,57.2,30.05,West,270,0.0,0.0,78,0.00,,,0.00,meteohub,2013-06-15 09:42:00,
2013-06-15 05:47:00,64.2,57.6,30.06,West,270,0.0,0.0,79,0.00,,,0.00,meteohub,2013-06-15 09:47:00,
2013-06-15 05:52:00,64.2,57.9,30.06,West,270,0.0,0.0,80,0.00,,,0.00,meteohub,2013-06-15 09:52:00,
2013-06-15 05:57:00,64.4,57.4,30.06,West,270,0.0,0.0,78,0.00,,,0.00,meteohub,2013-06-15 09:57:00,
2013-06-15 06:02:00,64.6,57.6,30.06,West,270,0.0,0.0,78,0.00,,,0.00,meteohub,2013-06-15 10:02:00,
2013-06-15 06:07:00,64.6,58.6,30.06,West,270,0.0,0.0,81,0.00,,,0.00,meteohub,2013-06-15 10:07:00,
2013-06-15 06:12:00,64.9,57.2,30.07,West,270,0.0,0.0,76,0.00,,,0.00,meteohub,2013-06-15 10:12:00,
2013-06-15 06:17:00,64.9,57.9,30.07,West,270,0.0,0.0,78,0.00,,,0.00,meteohub,2013-06-15 10:17:00,
2013-06-15 06:22:00,64.9,57.6,30.07,West,270,0.0,0.0,77,0.00,,,0.00,meteohub,2013-06-15 10:22:00,
2013-06-15 06:27:00,64.8,57.4,30.08,West,270,0.0,0.0,77,0.00,,,0.00,meteohub,2013-06-15 10:27:00,
2013-06-15 06:32:00,64.2,57.2,30.08,West,270,0.0,0.0,78,0.00,,,0.00,meteohub,2013-06-15 10:32:00,
2013-06-15 06:37:00,64.0,57.4,30.08,West,270,0.0,0.0,79,0.00,,,0.00,meteohub,2013-06-15 10:37:00,
2013-06-15 06:42:00,63.7,57.4,30.08,West,270,0.0,0.0,80,0.00,,,0.00,meteohub,2013-06-15 10:42:00,
2013-06-15 06:47:00,63.3,57.0,30.08,West,270,0.0,0.0,80,0.00,,,0.00,meteohub,2013-06-15 10:47:00,
2013-06-15 06:52:00,63.3,57.4,30.08,West,270,0.0,0.0,81,0.00,,,0.00,meteohub,2013-06-15 10:52:00,
2013-06-15 06:57:00,63.3,57.4,30.09,West,270,0.0,0.0,81,0.00,,,0.00,meteohub,2013-06-15 10:57:00,
2013-06-15 07:02:00,63.7,57.7,30.09,West,272,0.0,0.0,81,0.00,,,0.00,meteohub,2013-06-15 11:02:00,
2013-06-15 07:07:00,63.7,58.1,30.09,West,272,0.0,0.0,82,0.00,,,0.00,meteohub,2013-06-15 11:07:00,
2013-06-15 07:12:00,63.5,58.3,30.09,West,272,0.0,0.0,83,0.00,,,0.00,meteohub,2013-06-15 11:12:00,
2013-06-15 07:17:00,63.5,58.6,30.09,West,272,0.0,0.0,84,0.00,,,0.00,meteohub,2013-06-15 11:17:00,
2013-06-15 07:22:00,63.7,58.8,30.10,West,272,0.0,0.0,84,0.00,,,0.00,meteohub,2013-06-15 11:22:00,
2013-06-15 07:27:00,63.7,58.5,30.10,West,274,0.0,0.0,83,0.00,,,0.00,meteohub,2013-06-15 11:27:00,
2013-06-15 07:32:00,64.0,58.8,30.10,West,274,0.0,0.0,83,0.00,,,0.00,meteohub,2013-06-15 11:32:00,
2013-06-15 07:37:00,64.2,59.0,30.10,West,274,0.0,0.0,83,0.00,,,0.00,meteohub,2013-06-15 11:37:00,
2013-06-15 07:42:00,64.2,59.4,30.10,West,274,0.0,0.0,84,0.00,,,0.00,meteohub,2013-06-15 11:42:00,
2013-06-15 07:47:00,64.6,59.7,30.11,West,274,0.0,0.0,84,0.00,,,0.00,meteohub,2013-06-15 11:47:00,
2013-06-15 07:52:00,64.8,59.9,30.11,West,274,0.0,0.0,84,0.00,,,0.00,meteohub,2013-06-15 11:52:00,
2013-06-15 07:57:00,64.9,59.7,30.10,West,274,0.0,0.0,83,0.00,,,0.00,meteohub,2013-06-15 11:57:00,
2013-06-15 08:02:00,65.1,59.5,30.10,West,274,0.0,0.0,82,0.00,,,0.00,meteohub,2013-06-15 12:02:00,
2013-06-15 08:07:00,65.1,59.5,30.10,WNW,291,0.0,0.0,82,0.00,,,0.00,meteohub,2013-06-15 12:07:00,
2013-06-15 08:12:00,65.5,60.3,30.10,WNW,290,0.0,0.0,83,0.00,,,0.00,meteohub,2013-06-15 12:12:00,
2013-06-15 08:17:00,65.7,60.1,30.11,WNW,288,0.0,0.0,82,0.00,,,0.00,meteohub,2013-06-15 12:17:00,
2013-06-15 08:22:00,65.8,60.6,30.11,WNW,288,0.0,0.0,83,0.00,,,0.00,meteohub,2013-06-15 12:22:00,
2013-06-15 08:27:00,66.2,60.8,30.11,WNW,282,0.0,0.0,83,0.00,,,0.00,meteohub,2013-06-15 12:27:00,
2013-06-15 08:32:00,66.4,61.0,30.11,WNW,282,0.0,0.0,83,0.00,,,0.00,meteohub,2013-06-15 12:32:00,
2013-06-15 08:37:00,66.7,61.0,30.11,WNW,282,0.0,0.0,82,0.00,,,0.00,meteohub,2013-06-15 12:37:00,
2013-06-15 08:42:00,67.3,61.0,30.11,WNW,282,0.0,0.0,80,0.00,,,0.00,meteohub,2013-06-15 12:42:00,
2013-06-15 08:47:00,67.6,61.2,30.11,West,276,0.0,0.0,80,0.00,,,0.00,meteohub,2013-06-15 12:47:00,
2013-06-15 08:52:00,68.2,60.6,30.11,WNW,292,0.0,0.0,77,0.00,,,0.00,meteohub,2013-06-15 12:52:00,
2013-06-15 08:57:00,68.7,60.4,30.12,NW,313,2.0,0.0,75,0.00,,,0.00,meteohub,2013-06-15 12:57:00,
2013-06-15 09:02:00,69.1,60.4,30.12,NW,305,2.0,4.0,74,0.00,,,0.00,meteohub,2013-06-15 13:02:00,
2013-06-15 09:07:00,69.4,61.5,30.12,WNW,295,1.0,4.0,76,0.00,,,0.00,meteohub,2013-06-15 13:07:00,
2013-06-15 09:12:00,69.6,61.0,30.12,WNW,282,0.0,4.0,74,0.00,,,0.00,meteohub,2013-06-15 13:12:00,
2013-06-15 09:17:00,69.8,61.5,30.12,WNW,282,0.0,3.0,75,0.00,,,0.00,meteohub,2013-06-15 13:17:00,
2013-06-15 09:22:00,70.0,61.3,30.12,WNW,293,0.0,2.0,74,0.00,,,0.00,meteohub,2013-06-15 13:22:00,
2013-06-15 09:27:00,70.2,60.6,30.12,NW,313,2.0,2.0,72,0.00,,,0.00,meteohub,2013-06-15 13:27:00,
2013-06-15 09:32:00,70.3,60.4,30.12,West,269,1.0,3.0,71,0.00,,,0.00,meteohub,2013-06-15 13:32:00,
2013-06-15 09:37:00,70.5,60.3,30.12,West,271,0.0,3.0,70,0.00,,,0.00,meteohub,2013-06-15 13:37:00,
2013-06-15 09:42:00,70.7,60.8,30.12,West,273,2.0,3.0,71,0.00,,,0.00,meteohub,2013-06-15 13:42:00,
2013-06-15 09:47:00,71.1,60.8,30.12,WNW,293,1.0,2.0,70,0.00,,,0.00,meteohub,2013-06-15 13:47:00,
2013-06-15 09:52:00,71.2,60.6,30.12,WNW,293,0.0,2.0,69,0.00,,,0.00,meteohub,2013-06-15 13:52:00,
2013-06-15 09:57:00,71.4,60.8,30.12,West,275,0.0,2.0,69,0.00,,,0.00,meteohub,2013-06-15 13:57:00,
2013-06-15 10:02:00,71.4,61.2,30.12,West,275,0.0,2.0,70,0.00,,,0.00,meteohub,2013-06-15 14:02:00,
2013-06-15 10:07:00,71.8,60.6,30.12,NW,320,1.0,2.0,68,0.00,,,0.00,meteohub,2013-06-15 14:07:00,
2013-06-15 10:12:00,72.1,61.3,30.12,NW,314,0.0,3.0,69,0.00,,,0.00,meteohub,2013-06-15 14:12:00,
2013-06-15 10:17:00,72.3,61.2,30.12,NW,309,0.0,3.0,68,0.00,,,0.00,meteohub,2013-06-15 14:17:00,
2013-06-15 10:22:00,72.5,61.3,30.12,WSW,245,0.0,3.0,68,0.00,,,0.00,meteohub,2013-06-15 14:22:00,
2013-06-15 10:27:00,72.9,61.7,30.12,West,271,0.0,3.0,68,0.00,,,0.00,meteohub,2013-06-15 14:27:00,
2013-06-15 10:32:00,72.9,61.7,30.12,WNW,298,1.0,3.0,68,0.00,,,0.00,meteohub,2013-06-15 14:32:00,
2013-06-15 10:37:00,73.2,61.5,30.12,WSW,257,0.0,3.0,67,0.00,,,0.00,meteohub,2013-06-15 14:37:00,
2013-06-15 10:42:00,73.2,61.2,30.11,SW,227,1.0,3.0,66,0.00,,,0.00,meteohub,2013-06-15 14:42:00,
2013-06-15 10:47:00,73.2,62.1,30.11,WNW,298,0.0,3.0,68,0.00,,,0.00,meteohub,2013-06-15 14:47:00,
2013-06-15 10:52:00,73.8,62.6,30.11,WNW,300,2.0,3.0,68,0.00,,,0.00,meteohub,2013-06-15 14:52:00,
2013-06-15 10:57:00,74.1,61.2,30.11,WNW,286,0.0,3.0,64,0.00,,,0.00,meteohub,2013-06-15 14:57:00,
2013-06-15 11:02:00,74.5,60.6,30.11,NW,304,0.0,3.0,62,0.00,,,0.00,meteohub,2013-06-15 15:02:00,
2013-06-15 11:07:00,74.5,61.0,30.11,NNW,338,2.0,3.0,63,0.00,,,0.00,meteohub,2013-06-15 15:07:00,
2013-06-15 11:12:00,74.7,61.7,30.11,West,280,0.0,3.0,64,0.00,,,0.00,meteohub,2013-06-15 15:12:00,
2013-06-15 11:17:00,74.8,61.3,30.11,WNW,301,2.0,3.0,63,0.00,,,0.00,meteohub,2013-06-15 15:17:00,
2013-06-15 11:22:00,75.2,61.7,30.11,NW,318,4.0,4.0,63,0.00,,,0.00,meteohub,2013-06-15 15:22:00,
2013-06-15 11:27:00,75.4,61.9,30.11,WNW,290,0.0,4.0,63,0.00,,,0.00,meteohub,2013-06-15 15:27:00,
2013-06-15 11:32:00,75.7,61.9,30.11,WSW,237,2.0,4.0,62,0.00,,,0.00,meteohub,2013-06-15 15:32:00,
2013-06-15 11:37:00,75.7,61.9,30.11,WNW,296,1.0,4.0,62,0.00,,,0.00,meteohub,2013-06-15 15:37:00,
2013-06-15 11:42:00,75.9,61.9,30.11,NNW,346,0.0,3.0,62,0.00,,,0.00,meteohub,2013-06-15 15:42:00,
2013-06-15 11:47:00,76.5,62.4,30.11,NW,311,3.0,3.0,62,0.00,,,0.00,meteohub,2013-06-15 15:47:00,
2013-06-15 11:52:00,76.6,62.2,30.11,WNW,300,0.0,3.0,61,0.00,,,0.00,meteohub,2013-06-15 15:52:00,
2013-06-15 11:57:00,76.6,61.7,30.11,WSW,242,0.0,3.0,60,0.00,,,0.00,meteohub,2013-06-15 15:57:00,
2013-06-15 12:02:00,76.6,61.2,30.11,NNW,335,1.0,3.0,59,0.00,,,0.00,meteohub,2013-06-15 16:02:00,
2013-06-15 12:07:00,77.0,62.1,30.11,WSW,242,0.0,3.0,60,0.00,,,0.00,meteohub,2013-06-15 16:07:00,
2013-06-15 12:12:00,77.4,61.9,30.11,NW,304,0.0,3.0,59,0.00,,,0.00,meteohub,2013-06-15 16:12:00,
2013-06-15 12:17:00,77.7,62.8,30.11,NW,308,2.0,3.0,60,0.00,,,0.00,meteohub,2013-06-15 16:17:00,
2013-06-15 12:22:00,77.4,62.4,30.10,West,279,1.0,3.0,60,0.00,,,0.00,meteohub,2013-06-15 16:22:00,
2013-06-15 12:27:00,77.5,62.1,30.10,NW,312,3.0,3.0,59,0.00,,,0.00,meteohub,2013-06-15 16:27:00,
2013-06-15 12:32:00,77.7,62.2,30.10,NW,323,0.0,4.0,59,0.00,,,0.00,meteohub,2013-06-15 16:32:00,
2013-06-15 12:37:00,78.6,61.2,30.10,WSW,238,1.0,4.0,55,0.00,,,0.00,meteohub,2013-06-15 16:37:00,
2013-06-15 12:42:00,78.1,61.2,30.10,SW,235,3.0,4.0,56,0.00,,,0.00,meteohub,2013-06-15 16:42:00,
2013-06-15 12:47:00,78.3,61.7,30.10,West,275,1.0,4.0,57,0.00,,,0.00,meteohub,2013-06-15 16:47:00,
2013-06-15 12:52:00,79.3,61.2,30.10,WNW,282,0.0,4.0,54,0.00,,,0.00,meteohub,2013-06-15 16:52:00,
2013-06-15 12:57:00,79.0,61.0,30.10,North,0,3.0,3.0,54,0.00,,,0.00,meteohub,2013-06-15 16:57:00,
2013-06-15 13:02:00,78.6,60.1,30.09,NW,321,1.0,4.0,53,0.00,,,0.00,meteohub,2013-06-15 17:02:00,
2013-06-15 13:07:00,79.5,61.3,30.09,SW,232,2.0,4.0,54,0.00,,,0.00,meteohub,2013-06-15 17:07:00,
2013-06-15 13:12:00,79.5,59.2,30.09,West,270,0.0,4.0,50,0.00,,,0.00,meteohub,2013-06-15 17:12:00,
2013-06-15 13:17:00,79.3,60.3,30.09,NW,322,3.0,4.0,52,0.00,,,0.00,meteohub,2013-06-15 17:17:00,
2013-06-15 13:22:00,79.5,60.8,30.09,NNW,335,1.0,4.0,53,0.00,,,0.00,meteohub,2013-06-15 17:22:00,
2013-06-15 13:27:00,79.3,60.8,30.09,SW,227,2.0,3.0,53,0.00,,,0.00,meteohub,2013-06-15 17:27:00,
2013-06-15 13:32:00,79.9,60.1,30.09,WSW,238,0.0,3.0,51,0.00,,,0.00,meteohub,2013-06-15 17:32:00,
2013-06-15 13:37:00,80.1,59.7,30.08,NW,317,0.0,3.0,50,0.00,,,0.00,meteohub,2013-06-15 17:37:00,
2013-06-15 13:42:00,80.1,60.8,30.08,WNW,302,0.0,3.0,52,0.00,,,0.00,meteohub,2013-06-15 17:42:00,
2013-06-15 13:47:00,80.8,61.5,30.08,NW,310,1.0,3.0,52,0.00,,,0.00,meteohub,2013-06-15 17:47:00,
2013-06-15 13:52:00,80.4,60.6,30.08,WSW,249,1.0,3.0,51,0.00,,,0.00,meteohub,2013-06-15 17:52:00,
2013-06-15 13:57:00,80.6,59.7,30.08,NW,318,3.0,4.0,49,0.00,,,0.00,meteohub,2013-06-15 17:57:00,
2013-06-15 14:02:00,80.8,59.2,30.08,WSW,243,3.0,4.0,48,0.00,,,0.00,meteohub,2013-06-15 18:02:00,
2013-06-15 14:07:00,79.5,60.4,30.08,WNW,300,2.0,4.0,52,0.00,,,0.00,meteohub,2013-06-15 18:07:00,
2013-06-15 14:12:00,79.9,60.6,30.07,WNW,296,0.0,4.0,52,0.00,,,0.00,meteohub,2013-06-15 18:12:00,
2013-06-15 14:17:00,80.2,59.9,30.07,SSW,203,2.0,4.0,50,0.00,,,0.00,meteohub,2013-06-15 18:17:00,
2013-06-15 14:22:00,80.2,61.0,30.07,SSW,202,2.0,4.0,52,0.00,,,0.00,meteohub,2013-06-15 18:22:00,
2013-06-15 14:27:00,79.5,59.7,30.07,WNW,292,1.0,4.0,51,0.00,,,0.00,meteohub,2013-06-15 18:27:00,
2013-06-15 14:33:00,79.3,60.8,30.08,NW,313,0.0,4.0,53,0.00,,,0.00,meteohub,2013-06-15 18:33:00,
2013-06-15 14:38:00,78.6,61.5,30.08,WSW,244,0.0,3.0,56,0.00,,,0.00,meteohub,2013-06-15 18:38:00,
2013-06-15 14:43:00,79.3,60.8,30.07,NW,321,4.0,4.0,53,0.00,,,0.00,meteohub,2013-06-15 18:43:00,
2013-06-15 14:49:00,79.2,59.5,30.07,NW,317,0.0,3.0,51,0.00,,,0.00,meteohub,2013-06-15 18:49:00,
2013-06-15 14:54:00,78.3,60.3,30.07,NW,311,0.0,4.0,54,0.00,,,0.00,meteohub,2013-06-15 18:54:00,
2013-06-15 14:59:00,78.4,60.4,30.07,NW,311,0.0,4.0,54,0.00,,,0.00,meteohub,2013-06-15 18:59:00,
2013-06-15 15:04:00,79.3,60.3,30.07,SSW,200,1.0,3.0,52,0.00,,,0.00,meteohub,2013-06-15 19:04:00,
2013-06-15 15:10:00,79.0,61.0,30.07,West,261,0.0,2.0,54,0.00,,,0.00,meteohub,2013-06-15 19:10:00,
2013-06-15 15:15:00,78.4,61.0,30.07,West,261,0.0,2.0,55,0.00,,,0.00,meteohub,2013-06-15 19:15:00,
2013-06-15 15:20:00,79.3,61.2,30.07,West,261,0.0,2.0,54,0.00,,,0.00,meteohub,2013-06-15 19:20:00,
2013-06-15 15:25:00,80.1,61.3,30.06,WNW,293,1.0,6.0,53,0.00,,,0.00,meteohub,2013-06-15 19:25:00,
2013-06-15 15:30:00,80.4,59.0,30.06,WSW,237,2.0,6.0,48,0.00,,,0.00,meteohub,2013-06-15 19:30:00,
2013-06-15 15:36:00,80.8,61.0,30.06,West,275,1.0,6.0,51,0.00,,,0.00,meteohub,2013-06-15 19:36:00,
2013-06-15 15:41:00,79.7,61.5,30.06,West,275,0.0,4.0,54,0.00,,,0.00,meteohub,2013-06-15 19:41:00,
2013-06-15 15:46:00,80.2,60.4,30.06,West,275,0.0,4.0,51,0.00,,,0.00,meteohub,2013-06-15 19:46:00,
2013-06-15 15:51:00,80.1,60.3,30.06,West,272,0.0,2.0,51,0.00,,,0.00,meteohub,2013-06-15 19:51:00,
2013-06-15 15:56:00,79.0,62.4,30.06,West,272,0.0,2.0,57,0.00,,,0.00,meteohub,2013-06-15 19:56:00,
2013-06-15 16:02:00,78.6,62.6,30.06,NW,313,0.0,2.0,58,0.00,,,0.00,meteohub,2013-06-15 20:02:00,
2013-06-15 16:07:00,79.3,62.2,30.06,NW,306,0.0,2.0,56,0.00,,,0.00,meteohub,2013-06-15 20:07:00,
2013-06-15 16:12:00,80.1,63.5,30.07,NW,306,1.0,2.0,57,0.00,,,0.00,meteohub,2013-06-15 20:12:00,
2013-06-15 16:17:00,80.1,61.9,30.06,West,277,0.0,2.0,54,0.00,,,0.00,meteohub,2013-06-15 20:17:00,
2013-06-15 16:22:00,81.0,61.7,30.06,West,277,0.0,2.0,52,0.00,,,0.00,meteohub,2013-06-15 20:22:00,
2013-06-15 16:27:00,80.2,62.1,30.06,NW,323,2.0,2.0,54,0.00,,,0.00,meteohub,2013-06-15 20:27:00,
2013-06-15 16:32:00,79.5,62.4,30.07,WNW,301,0.0,4.0,56,0.00,,,0.00,meteohub,2013-06-15 20:32:00,
2013-06-15 16:37:00,79.7,63.1,30.06,WNW,301,0.0,4.0,57,0.00,,,0.00,meteohub,2013-06-15 20:37:00,
2013-06-15 16:42:00,80.2,62.6,30.06,West,263,1.0,3.0,55,0.00,,,0.00,meteohub,2013-06-15 20:42:00,
2013-06-15 16:47:00,80.8,62.1,30.06,WNW,282,0.0,3.0,53,0.00,,,0.00,meteohub,2013-06-15 20:47:00,
2013-06-15 16:52:00,80.8,62.6,30.06,WNW,300,0.0,3.0,54,0.00,,,0.00,meteohub,2013-06-15 20:52:00,
2013-06-15 16:57:00,80.4,62.2,30.06,West,267,0.0,3.0,54,0.00,,,0.00,meteohub,2013-06-15 20:57:00,
2013-06-15 17:02:00,79.3,62.8,30.06,West,267,0.0,2.0,57,0.00,,,0.00,meteohub,2013-06-15 21:02:00,
2013-06-15 17:07:00,78.6,61.5,30.06,West,267,0.0,2.0,56,0.00,,,0.00,meteohub,2013-06-15 21:07:00,
2013-06-15 17:12:00,79.0,62.4,30.06,West,267,0.0,1.0,57,0.00,,,0.00,meteohub,2013-06-15 21:12:00,
2013-06-15 17:17:00,79.2,62.6,30.05,West,268,0.0,0.0,57,0.00,,,0.00,meteohub,2013-06-15 21:17:00,
2013-06-15 17:22:00,79.5,63.5,30.05,West,268,0.0,0.0,58,0.00,,,0.00,meteohub,2013-06-15 21:22:00,
2013-06-15 17:27:00,79.0,63.5,30.05,West,267,0.0,0.0,59,0.00,,,0.00,meteohub,2013-06-15 21:27:00,
2013-06-15 17:32:00,78.4,64.4,30.06,West,267,0.0,0.0,62,0.00,,,0.00,meteohub,2013-06-15 21:32:00,
2013-06-15 17:37:00,78.6,62.1,30.05,West,267,0.0,0.0,57,0.00,,,0.00,meteohub,2013-06-15 21:37:00,
2013-06-15 17:42:00,79.2,62.1,30.05,West,267,0.0,0.0,56,0.00,,,0.00,meteohub,2013-06-15 21:42:00,
2013-06-15 17:47:00,79.7,62.1,30.05,West,265,0.0,0.0,55,0.00,,,0.00,meteohub,2013-06-15 21:47:00,
2013-06-15 17:52:00,79.9,62.8,30.05,West,265,0.0,1.0,56,0.00,,,0.00,meteohub,2013-06-15 21:52:00,
2013-06-15 17:57:00,80.1,63.0,30.05,West,265,0.0,1.0,56,0.00,,,0.00,meteohub,2013-06-15 21:57:00,
2013-06-15 18:02:00,80.2,62.1,30.05,West,265,0.0,0.0,54,0.00,,,0.00,meteohub,2013-06-15 22:02:00,
2013-06-15 18:07:00,79.5,62.4,30.05,West,265,0.0,0.0,56,0.00,,,0.00,meteohub,2013-06-15 22:07:00,
2013-06-15 18:12:00,79.9,63.9,30.05,West,265,0.0,0.0,58,0.00,,,0.00,meteohub,2013-06-15 22:12:00,
2013-06-15 18:17:00,79.3,63.7,30.05,West,265,0.0,1.0,59,0.00,,,0.00,meteohub,2013-06-15 22:17:00,
2013-06-15 18:22:00,79.7,64.6,30.05,West,265,0.0,1.0,60,0.00,,,0.00,meteohub,2013-06-15 22:22:00,
2013-06-15 18:27:00,79.5,61.9,30.05,West,265,0.0,1.0,55,0.00,,,0.00,meteohub,2013-06-15 22:27:00,
2013-06-15 18:32:00,79.2,61.5,30.05,West,265,0.0,0.0,55,0.00,,,0.00,meteohub,2013-06-15 22:32:00,
2013-06-15 18:37:00,79.2,62.6,30.05,West,265,0.0,0.0,57,0.00,,,0.00,meteohub,2013-06-15 22:37:00,
2013-06-15 18:42:00,79.0,63.0,30.05,West,265,0.0,0.0,58,0.00,,,0.00,meteohub,2013-06-15 22:42:00,
2013-06-15 18:47:00,79.0,62.4,30.05,West,265,0.0,0.0,57,0.00,,,0.00,meteohub,2013-06-15 22:47:00,
2013-06-15 18:52:00,78.6,63.1,30.05,West,265,0.0,0.0,59,0.00,,,0.00,meteohub,2013-06-15 22:52:00,
2013-06-15 18:57:00,78.3,62.8,30.05,West,265,0.0,0.0,59,0.00,,,0.00,meteohub,2013-06-15 22:57:00,
2013-06-15 19:02:00,78.1,63.1,30.05,West,265,0.0,0.0,60,0.00,,,0.00,meteohub,2013-06-15 23:02:00,
2013-06-15 19:07:00,78.1,62.6,30.05,West,265,0.0,0.0,59,0.00,,,0.00,meteohub,2013-06-15 23:07:00,
2013-06-15 19:12:00,78.1,63.1,30.05,West,265,0.0,0.0,60,0.00,,,0.00,meteohub,2013-06-15 23:12:00,
2013-06-15 19:17:00,77.7,63.7,30.05,West,265,0.0,0.0,62,0.00,,,0.00,meteohub,2013-06-15 23:17:00,
2013-06-15 19:22:00,77.5,63.5,30.05,West,265,0.0,0.0,62,0.00,,,0.00,meteohub,2013-06-15 23:22:00,
2013-06-15 19:27:00,77.5,63.0,30.05,West,265,0.0,0.0,61,0.00,,,0.00,meteohub,2013-06-15 23:27:00,
2013-06-15 19:32:00,77.5,63.0,30.05,West,265,0.0,0.0,61,0.00,,,0.00,meteohub,2013-06-15 23:32:00,
2013-06-15 19:37:00,77.4,62.8,30.05,West,265,0.0,0.0,61,0.00,,,0.00,meteohub,2013-06-15 23:37:00,
2013-06-15 19:42:00,77.2,63.1,30.05,West,265,0.0,0.0,62,0.00,,,0.00,meteohub,2013-06-15 23:42:00,
2013-06-15 19:47:00,76.8,63.3,30.05,West,265,0.0,0.0,63,0.00,,,0.00,meteohub,2013-06-15 23:47:00,
2013-06-15 19:52:00,76.6,63.5,30.05,SSE,147,0.0,0.0,64,0.00,,,0.00,meteohub,2013-06-15 23:52:00,
2013-06-15 19:57:00,76.5,63.9,30.05,SSE,147,0.0,0.0,65,0.00,,,0.00,meteohub,2013-06-15 23:57:00,
2013-06-15 20:02:00,76.3,63.7,30.05,SSE,147,0.0,0.0,65,0.00,,,0.00,meteohub,2013-06-16 00:02:00,
2013-06-15 20:07:00,75.9,63.3,30.05,SSE,147,0.0,0.0,65,0.00,,,0.00,meteohub,2013-06-16 00:07:00,
2013-06-15 20:12:00,75.9,63.3,30.05,SSE,147,0.0,0.0,65,0.00,,,0.00,meteohub,2013-06-16 00:12:00,
2013-06-15 20:17:00,75.7,63.1,30.05,SSE,147,0.0,0.0,65,0.00,,,0.00,meteohub,2013-06-16 00:17:00,
2013-06-15 20:22:00,75.6,62.6,30.05,SSE,147,0.0,0.0,64,0.00,,,0.00,meteohub,2013-06-16 00:22:00,
2013-06-15 20:27:00,75.6,62.6,30.05,SSE,147,0.0,0.0,64,0.00,,,0.00,meteohub,2013-06-16 00:27:00,
2013-06-15 20:32:00,75.6,62.6,30.05,SSE,147,0.0,0.0,64,0.00,,,0.00,meteohub,2013-06-16 00:32:00,
2013-06-15 20:37:00,75.4,62.8,30.06,SSE,147,0.0,0.0,65,0.00,,,0.00,meteohub,2013-06-16 00:37:00,
2013-06-15 20:42:00,75.2,62.6,30.05,SSE,147,0.0,0.0,65,0.00,,,0.00,meteohub,2013-06-16 00:42:00,
2013-06-15 20:47:00,75.0,62.4,30.05,SSE,147,0.0,0.0,65,0.00,,,0.00,meteohub,2013-06-16 00:47:00,
2013-06-15 20:52:00,74.8,62.2,30.05,SSE,147,0.0,0.0,65,0.00,,,0.00,meteohub,2013-06-16 00:52:00,
2013-06-15 20:57:00,74.7,61.7,30.05,SSE,147,0.0,0.0,64,0.00,,,0.00,meteohub,2013-06-16 00:57:00,
2013-06-15 21:02:00,74.7,61.7,30.06,SSE,147,0.0,0.0,64,0.00,,,0.00,meteohub,2013-06-16 01:02:00,
2013-06-15 21:07:00,74.5,61.9,30.05,SSE,147,0.0,0.0,65,0.00,,,0.00,meteohub,2013-06-16 01:07:00,
2013-06-15 21:12:00,74.1,61.5,30.05,SSE,147,0.0,0.0,65,0.00,,,0.00,meteohub,2013-06-16 01:12:00,
2013-06-15 21:17:00,73.9,61.9,30.05,SSE,147,0.0,0.0,66,0.00,,,0.00,meteohub,2013-06-16 01:17:00,
2013-06-15 21:22:00,73.9,61.9,30.06,SSE,147,0.0,0.0,66,0.00,,,0.00,meteohub,2013-06-16 01:22:00,
2013-06-15 21:27:00,73.9,61.9,30.06,SSE,147,0.0,0.0,66,0.00,,,0.00,meteohub,2013-06-16 01:27:00,
2013-06-15 21:32:00,73.8,61.7,30.06,SSE,147,0.0,0.0,66,0.00,,,0.00,meteohub,2013-06-16 01:32:00,
2013-06-15 21:37:00,73.8,62.1,30.06,SSE,147,0.0,0.0,67,0.00,,,0.00,meteohub,2013-06-16 01:37:00,
2013-06-15 21:42:00,73.6,61.9,30.06,SSE,147,0.0,0.0,67,0.00,,,0.00,meteohub,2013-06-16 01:42:00,
2013-06-15 21:47:00,73.6,61.9,30.06,SSE,147,0.0,0.0,67,0.00,,,0.00,meteohub,2013-06-16 01:47:00,
2013-06-15 21:52:00,73.2,62.1,30.06,SSE,147,0.0,0.0,68,0.00,,,0.00,meteohub,2013-06-16 01:52:00,
2013-06-15 21:57:00,73.2,62.1,30.06,SSE,147,0.0,0.0,68,0.00,,,0.00,meteohub,2013-06-16 01:57:00,
2013-06-15 22:02:00,73.0,62.2,30.06,SSE,147,0.0,0.0,69,0.00,,,0.00,meteohub,2013-06-16 02:02:00,
2013-06-15 22:07:00,72.9,62.1,30.06,SSE,147,0.0,0.0,69,0.00,,,0.00,meteohub,2013-06-16 02:07:00,
2013-06-15 22:12:00,72.9,62.1,30.06,SSE,147,0.0,0.0,69,0.00,,,0.00,meteohub,2013-06-16 02:12:00,
2013-06-15 22:17:00,72.7,61.9,30.06,SSE,147,0.0,0.0,69,0.00,,,0.00,meteohub,2013-06-16 02:17:00,
2013-06-15 22:22:00,72.7,62.2,30.06,SSE,147,0.0,0.0,70,0.00,,,0.00,meteohub,2013-06-16 02:22:00,
2013-06-15 22:27:00,72.5,62.2,30.06,SSE,147,0.0,0.0,70,0.00,,,0.00,meteohub,2013-06-16 02:27:00,
2013-06-15 22:32:00,72.3,62.1,30.06,SSE,147,0.0,0.0,70,0.00,,,0.00,meteohub,2013-06-16 02:32:00,
2013-06-15 22:37:00,72.3,62.4,30.06,SSE,147,0.0,0.0,71,0.00,,,0.00,meteohub,2013-06-16 02:37:00,
2013-06-15 22:42:00,72.1,62.2,30.06,SSE,147,0.0,0.0,71,0.00,,,0.00,meteohub,2013-06-16 02:42:00,
2013-06-15 22:47:00,72.1,62.2,30.06,SSE,147,0.0,0.0,71,0.00,,,0.00,meteohub,2013-06-16 02:47:00,
2013-06-15 22:52:00,72.0,62.4,30.06,SSE,147,0.0,0.0,72,0.00,,,0.00,meteohub,2013-06-16 02:52:00,
2013-06-15 22:57:00,72.0,62.4,30.06,SSE,147,0.0,0.0,72,0.00,,,0.00,meteohub,2013-06-16 02:57:00,
2013-06-15 23:02:00,72.0,62.4,30.06,SSE,147,0.0,0.0,72,0.00,,,0.00,meteohub,2013-06-16 03:02:00,
2013-06-15 23:07:00,71.8,62.2,30.06,SSE,147,0.0,0.0,72,0.00,,,0.00,meteohub,2013-06-16 03:07:00,
2013-06-15 23:12:00,72.0,62.4,30.06,SSE,147,0.0,0.0,72,0.00,,,0.00,meteohub,2013-06-16 03:12:00,
2013-06-15 23:17:00,72.0,62.1,30.06,SSE,147,0.0,0.0,71,0.00,,,0.00,meteohub,2013-06-16 03:17:00,
2013-06-15 23:22:00,72.0,62.4,30.06,SSE,147,0.0,0.0,72,0.00,,,0.00,meteohub,2013-06-16 03:22:00,
2013-06-15 23:27:00,71.8,62.2,30.06,SSE,147,0.0,0.0,72,0.00,,,0.00,meteohub,2013-06-16 03:27:00,
2013-06-15 23:32:00,71.6,62.1,30.06,SSE,147,0.0,0.0,72,0.00,,,0.00,meteohub,2013-06-16 03:32:00,
2013-06-15 23:37:00,71.4,61.9,30.07,SSE,147,0.0,0.0,72,0.00,,,0.00,meteohub,2013-06-16 03:37:00,
2013-06-15 23:42:00,71.4,61.9,30.07,SSE,147,0.0,0.0,72,0.00,,,0.00,meteohub,2013-06-16 03:42:00,
2013-06-15 23:47:00,71.4,61.9,30.06,SSE,147,0.0,0.0,72,0.00,,,0.00,meteohub,2013-06-16 03:47:00,
2013-06-15 23:52:00,71.6,62.1,30.07,SW,225,0.0,0.0,72,0.00,,,0.00,meteohub,2013-06-16 03:52:00,
2013-06-15 23:57:00,71.6,62.1,30.07,SW,225,0.0,1.0,72,0.00,,,0.00,meteohub,2013-06-16 03:57:00,